Regional Weather Roundup
Issued by NWS

Home | Current Version | Previous Version | Text Only | Print | Product List | Glossary Off
Versions: 1 2 3 4 5 6 7 8 9 10 11 12 13 14 15 16 17 18 19 20 21 22 23 24 25 26 27 28 29 30 31 32 33 34 35 36 37 38 39 40 41 42 43 44 45 46 47 48 49 50

000
ASUS43 KIND 221209
RWRIN

WEATHER ROUNDUP FOR INDIANA
NATIONAL WEATHER SERVICE INDIANAPOLIS IN
800 AM EDT SUN OCT 22 2017

NOTE: "FAIR" INDICATES FEW OR NO CLOUDS BELOW 12,000 FEET WITH NO
SIGNIFICANT WEATHER AND/OR OBSTRUCTIONS TO VISIBILITY.

* - STATION DOES NOT REPORT WEATHER SUCH AS PRECIPITATION OR FOG.

+ - STATION NOT QUALITY CONTROLLED BY THE NATIONAL WEATHER SERVICE.
    USE DATA WITH CAUTION...ESPECIALLY DEWPOINT AND RELATIVE
    HUMIDITY OBSERVATIONS.

INZ001>003-010>013-019-020-221300-
NORTHWEST INDIANA

CITY           SKY/WX    TMP DP  RH WIND       PRES   REMARKS
GARY /AIRPORT/ MOCLDY    68  54  60 S14G25    29.97F
KNOX *+        CLOUDY    61  50  67 S16       30.02F
LA PORTE +     CLOUDY    62  52  69 S10       30.01F
6HR MIN TEMP:  62; 6HR MAX TEMP:  63;

MICHIGAN CITY+ CLOUDY    63  52  67 S7G16     29.99F
MONTICELLO +   CLOUDY    60  51  73 SE6       30.04S
6HR MIN TEMP:  60; 6HR MAX TEMP:  65;

RENSSELAER +   PTCLDY    63  46  55 SE14      30.00F
VALPARAISO     PTCLDY    64  53  67 S10       30.00F
6HR MIN TEMP:  63; 6HR MAX TEMP:  66;


$$

LMZ046-743>745-221300-
SOUTHERN LAKE MICHIGAN

STATION/POSITION TIME  TEMP    WIND        PRES    WAVE
                       AIR SEA DIR/SP/G            HT
                 (UTC) (F)     (DEG/KT/KT) (MB)    (FT)
BURNS HARBOR     1140   66     170/ 17/ 24 1014.9F
MICHIGAN CITY    1140   64     150/ 14/ 18   N/A
5NW MICH CITY    1200   63 58  170/ 17/ 21   N/A     2

$$

INZ004-005-014>016-021>024-221300-
NORTH CENTRAL INDIANA

CITY           SKY/WX    TMP DP  RH WIND       PRES   REMARKS
GOSHEN         CLEAR     59  47  64 SE7       30.07S
6HR MIN TEMP:  58; 6HR MAX TEMP:  63;

LOGANSPORT +   CLOUDY    55  50  82 SE9       30.08S
PERU/GRISSOM   CLEAR     58  51  75 S12       30.08R
6HR MIN TEMP:  58; 6HR MAX TEMP:  61;

SOUTH BEND     CLOUDY    60  50  69 SE12      30.03F
6HR MIN TEMP:  59; 6HR MAX TEMP:  65;

WARSAW +       CLEAR     57  48  72 SE5       30.08S

$$

INZ006>009-017-018-025>027-221300-
NORTHEAST INDIANA

CITY           SKY/WX    TMP DP  RH WIND       PRES   REMARKS
AUBURN +       CLEAR     54  46  76 CALM      30.12S
FORT WAYNE     PTCLDY    55  47  74 S8        30.13R
6HR MIN TEMP:  55; 6HR MAX TEMP:  60;

HUNTINGTON +   CLEAR     58  49  72 S5        30.11R
6HR MIN TEMP:  57; 6HR MAX TEMP:  61;

KENDALLVILLE + CLEAR     57  48  73 S7        30.11R

$$

INZ028-029-035-036-043>045-051>053-221300-
WEST CENTRAL INDIANA

CITY           SKY/WX    TMP DP  RH WIND       PRES   REMARKS
GREENCASTLE +  CLOUDY    59  52  77 S6        30.08S
LAFAYETTE      PTCLDY    61  53  75 S12G17    30.03F
6HR MIN TEMP:  60; 6HR MAX TEMP:  63;

TERRE HAUTE    CLOUDY    64  54  69 S15       30.05S
6HR MIN TEMP:  62; 6HR MAX TEMP:  65;


$$

INZ030>032-037>040-046>048-054>057-064-065-221300-
CENTRAL INDIANA

CITY           SKY/WX    TMP DP  RH WIND       PRES   REMARKS
CP ATTERBURY + PTCLDY    55  50  82 S7        30.12R
COLUMBUS       CLEAR     57  48  72 S9        30.13S
FRANKFORT +    CLOUDY    60  53  76 S3        30.08F
6HR MIN TEMP:  60; 6HR MAX TEMP:  65;

GREENWOOD *+   CLEAR     59  52  76 S7        30.12R
6HR MIN TEMP:  59; 6HR MAX TEMP:  64;

INDIANAPOLIS   MOCLDY    57  50  77 SE9       30.11R
6HR MIN TEMP:  55; 6HR MAX TEMP:  60;

-EAGLE CREEK   CLEAR     58  49  72 SE7       30.10R
6HR MIN TEMP:  57; 6HR MAX TEMP:  61;

KOKOMO +       CLEAR     58  50  75 S14       30.10R
6HR MIN TEMP:  58; 6HR MAX TEMP:  61;

MARION +       PTCLDY    55  48  76 S8        30.13R
MT COMFORT *+  PTCLDY    57  54  88 S10       30.11R
SHELBYVILLE    PTCLDY    60  48  64 S10       30.12R
6HR MIN TEMP:  57; 6HR MAX TEMP:  62;

ZIONSVILLE +   CLEAR     57  50  77 S9        30.11R
6HR MIN TEMP:  56; 6HR MAX TEMP:  61;


$$

INZ033-034-041-042-049-050-058-059-221300-
EAST CENTRAL INDIANA

CITY           SKY/WX    TMP DP  RH WIND       PRES   REMARKS
MUNCIE         PTCLDY    60  49  66 S7        30.13R
6HR MIN TEMP:  60; 6HR MAX TEMP:  63;

RICHMOND +     PTCLDY    52  46  82 SE10      30.17S

$$

INZ060-061-067>069-081>083-085>088-221300-
SOUTHWEST INDIANA

CITY           SKY/WX    TMP DP  RH WIND       PRES   REMARKS
EVANSVILLE     CLOUDY    62  54  74 SE6       30.06F
6HR MIN TEMP:  61; 6HR MAX TEMP:  65;

HUNTINGBURG +  PTCLDY    61  53  75 SE10      30.11R
6HR MIN TEMP:  60; 6HR MAX TEMP:  66;

WASHINGTON +   CLOUDY    63  51  66 S10       30.08R
6HR MIN TEMP:  59; 6HR MAX TEMP:  63;


$$

INZ062-063-066-070>080-084-089>092-221300-
SOUTH CENTRAL AND SOUTHEAST INDIANA

CITY           SKY/WX    TMP DP  RH WIND       PRES   REMARKS
BLOOMINGTON    MOCLDY    58  50  75 SE9       30.10R
6HR MIN TEMP:  57; 6HR MAX TEMP:  62;

MADISON *+     PTCLDY    59  46  63 SE7       30.17S
NORTH VERNON + MOCLDY    57  48  72 SE8       30.14F

$$





USA.gov is the U.S. government's official web portal to all federal, state and local government web resources and services.